Weather History for Honolulu, HI

Change the Weather History Date:

Friday, April 5, 2013

  Actual Average Record
Temperature  
Mean Temperature 74 °F 76 °F  
Max Temperature 83 °F 82 °F 86 °F (2004)
Min Temperature 65 °F 69 °F 61 °F (1966)
Degree Days  
Heating Degree Days 0 0  
Month to date heating degree days 0 0  
Since 1 July heating degree days 0 0  
Cooling Degree Days 9 11  
Month to date cooling degree days 30 55  
Year to date cooling degree days 785 830  
Growing Degree Days 23 (Base 50)    
Moisture  
Dew Point 64 °F    
Average Humidity 74    
Maximum Humidity 93    
Minimum Humidity 54    
Precipitation  
Precipitation 0.00 in 0.03 in 0.15 in (1965)
Month to date precipitation T 0.18  
Year to date precipitation 6.02 6.50  
Snow  
Snow 0.00 in - - ()
Month to date snowfall 0.0  
Since 1 July snowfall 0.0  
Snow Depth 0.00 in    
Sea Level Pressure  
Sea Level Pressure 30.08 in    
Wind  
Wind Speed 6 mph (NE)    
Max Wind Speed 17 mph    
Max Gust Speed 20 mph    
Visibility 10 miles    
Events      
T = Trace of Precipitation, MM = Missing Value Source: NWS Daily Summary

Daily Weather History Graph

Daily Weather History Graph

Search for Another Location

Airport:

Trip Planner

Search our weather history database for the weather conditions in past years. The results will help you decide how hot, cold, wet, or windy it might be!

Date:

Astronomy

Apr. 05, 2013 Rise Set
Actual Time 6:20 AM HST 6:47 PM HST
Civil Twilight 5:58 AM HST 7:10 PM HST
Nautical Twilight 5:32 AM HST 7:36 PM HST
Astronomical Twilight 5:05 AM HST 8:03 PM HST
Moon 3:02 AM HST (4/5) 2:54 PM HST (4/5)
Length of Visible Light 13h 11m
Length of Day
12h 27m
Waning Crescent, 21% of the Moon is Illuminated
Apr 5
Waning Crescent
Apr 9
New
Apr 18
First Quarter
Apr 25
Full
May 2
Last Quarter

Hourly Weather History & Observations

Time (HST) Temp. Heat Index Dew Point Humidity Pressure Visibility Wind Dir Wind Speed Gust Speed Precip Events Conditions
12:53 AM 69.1 °F - 64.0 °F 84% 30.06 in 10.0 mi WNW 3.5 mph - N/A   Partly Cloudy
1:53 AM 66.9 °F - 63.0 °F 87% 30.05 in 10.0 mi Calm Calm - N/A   Partly Cloudy
2:53 AM 66.9 °F - 63.0 °F 87% 30.04 in 10.0 mi Calm Calm - N/A   Partly Cloudy
3:53 AM 66.9 °F - 63.0 °F 87% 30.03 in 10.0 mi NW 3.5 mph - N/A   Partly Cloudy
4:53 AM 66.0 °F - 63.0 °F 90% 30.05 in 10.0 mi Calm Calm - N/A   Clear
5:53 AM 64.9 °F - 62.1 °F 90% 30.06 in 10.0 mi North 3.5 mph - N/A   Partly Cloudy
6:53 AM 66.9 °F - 63.0 °F 87% 30.08 in 8.0 mi WNW 3.5 mph - N/A   Partly Cloudy
7:53 AM 71.1 °F - 64.0 °F 78% 30.10 in 9.0 mi NNW 3.5 mph - N/A   Partly Cloudy
8:53 AM 75.9 °F - 64.0 °F 67% 30.11 in 10.0 mi ENE 10.4 mph - N/A   Scattered Clouds
9:53 AM 79.0 °F - 63.0 °F 58% 30.12 in 10.0 mi NE 13.8 mph - N/A   Scattered Clouds
10:53 AM 80.1 °F 81.5 °F 63.0 °F 56% 30.11 in 10.0 mi NE 15.0 mph - N/A   Scattered Clouds
11:53 AM 80.1 °F 81.5 °F 63.0 °F 56% 30.09 in 10.0 mi NE 12.7 mph - N/A   Scattered Clouds
12:53 PM 81.0 °F 81.9 °F 62.1 °F 52% 30.08 in 10.0 mi NE 8.1 mph - N/A   Scattered Clouds
1:53 PM 81.0 °F 81.9 °F 62.1 °F 52% 30.06 in 10.0 mi East 9.2 mph - N/A   Scattered Clouds
2:53 PM 81.0 °F 81.9 °F 62.1 °F 52% 30.03 in 10.0 mi NE 9.2 mph - N/A   Scattered Clouds
3:53 PM 82.0 °F 83.0 °F 62.1 °F 51% 30.03 in 10.0 mi ENE 6.9 mph - N/A   Scattered Clouds
4:53 PM 81.0 °F 82.2 °F 63.0 °F 54% 30.04 in 10.0 mi ENE 10.4 mph 18.4 mph N/A   Scattered Clouds
5:53 PM 78.1 °F - 64.0 °F 62% 30.05 in 10.0 mi ENE 12.7 mph - N/A   Scattered Clouds
6:53 PM 75.9 °F - 64.0 °F 67% 30.07 in 10.0 mi NE 9.2 mph - N/A   Partly Cloudy
7:53 PM 75.0 °F - 64.9 °F 71% 30.10 in 10.0 mi East 10.4 mph - N/A   Partly Cloudy
8:53 PM 75.0 °F - 66.0 °F 73% 30.12 in 10.0 mi ENE 8.1 mph - N/A   Partly Cloudy
9:53 PM 73.9 °F - 66.9 °F 79% 30.14 in 10.0 mi ENE 8.1 mph - N/A   Partly Cloudy
10:53 PM 73.9 °F - 66.9 °F 79% 30.14 in 10.0 mi NNE 3.5 mph - N/A   Partly Cloudy
11:53 PM 73.9 °F - 68.0 °F 82% 30.13 in 10.0 mi ENE 5.8 mph - N/A   Scattered Clouds